This is the latest recevied weather packets stored in our database for station/object WD7OO. If no packets are shown the sender has not sent any weather packets the latest 10 day(s).
| Time | Temp. | Humidity | Pressure | Rain* | Wind** | Luminosity | Snow |
|---|---|---|---|---|---|---|---|
| 1777832620 | 15.56° C | 52% | 1012.9 hPa | 0 mm | - | 315 W/m² | - |
| 1777832317 | 16.11° C | 51% | 1013.1 hPa | 0 mm | - | 386 W/m² | - |
| 1777832014 | 15.56° C | 50% | 1013.1 hPa | 0 mm | - | 468 W/m² | - |
| 1777831710 | 15.56° C | 53% | 1012.8 hPa | 0 mm | - | 327 W/m² | - |
| 1777831408 | 15.56° C | 50% | 1013.1 hPa | 0 mm | - | 338 W/m² | - |
| 1777831104 | 15° C | 51% | 1013.1 hPa | 0 mm | - | 645 W/m² | - |
| 1777830803 | 15.56° C | 49% | 1013.1 hPa | 0 mm | - | 308 W/m² | - |
| 1777830498 | 15° C | 50% | 1013.3 hPa | 0 mm | - | 418 W/m² | - |
| 1777830196 | 15.56° C | 49% | 1013.4 hPa | 0 mm | - | 375 W/m² | - |
| 1777829891 | 15.56° C | 49% | 1013.4 hPa | 0 mm | - | 436 W/m² | - |
| 1777829588 | 15.56° C | 47% | 1013.3 hPa | 0 mm | - | 543 W/m² | - |
| 1777829285 | 15.56° C | 50% | 1013.4 hPa | 0 mm | - | 496 W/m² | - |
| 1777828982 | 16.11° C | 49% | 1013.6 hPa | 0 mm | - | 504 W/m² | - |
| 1777828678 | 16.11° C | 47% | 1013.5 hPa | 0 mm | - | 588 W/m² | - |
| 1777828375 | 15.56° C | 48% | 1013.8 hPa | 0 mm | - | 518 W/m² | - |
| 1777828072 | 16.11° C | 46% | 1013.9 hPa | 0 mm | - | 615 W/m² | - |
| 1777827769 | 15.56° C | 48% | 1014.1 hPa | 0 mm | - | 692 W/m² | - |
| 1777827466 | 15.56° C | 50% | 1014 hPa | 0 mm | - | 644 W/m² | - |
| 1777827164 | 16.11° C | 49% | 1013.9 hPa | 0 mm | - | 650 W/m² | - |
| 1777826859 | 15.56° C | 49% | 1014.3 hPa | 0 mm | - | 635 W/m² | - |
| 1777826557 | 16.11° C | 49% | 1014.1 hPa | 0 mm | - | 600 W/m² | - |
| 1777826253 | 15.56° C | 49% | 1014.5 hPa | 0 mm | - | 554 W/m² | - |
| 1777825951 | 15.56° C | 49% | 1014.4 hPa | 0 mm | - | 613 W/m² | - |
| 1777825647 | 16.11° C | 47% | 1014.4 hPa | 0 mm | - | 655 W/m² | - |
| 1777825346 | 15.56° C | 50% | 1014.3 hPa | 0 mm | - | 703 W/m² | - |
* Rain latest hour (hover to see other rain measurements)
** Current wind speed in m/s (hover to see current wind gust speed)